Regional Weather Roundup
Issued by NWS

Home | Current Version | Previous Version | Graphics & Text | Print | Product List | Glossary On
Versions: 1 2 3 4 5 6 7 8 9 10 11 12 13 14 15 16 17 18 19 20 21 22 23 24 25 26 27 28 29 30 31 32 33 34 35 36 37 38 39 40 41 42 43 44 45 46 47 48 49 50
000
ASUS44 KMEG 180700
RWRTN
TENNESSEE HOURLY STATE WEATHER ROUNDUP
NATIONAL WEATHER SERVICE MEMPHIS TN
200 AM CDT SAT APR 18 2015

TNZ002-004-019-021-049-052-054-088>092-180800-
WEST TENNESSEE

CITY           SKY/WX    TMP DP  RH WIND       PRES   REMARKS
MEMPHIS INTL   CLOUDY    63  59  87 CALM      29.99S
NWS MEMPHIS      N/A     60 N/A N/A MISG        N/A
JACKSON        MOCLDY    54  53  97 E3        30.00F FOG
DYERSBURG      PTCLDY    61  48  63 CALM      30.00F
UNION CITY     MOCLDY    55  32  41 CALM      30.00R VSB 1/2
PARIS          CLEAR     54  52  94 CALM      30.01S
LEXINGTON      CLOUDY    55  55 100 CALM      30.00F VSB 0
SAVANNAH       MOCLDY    57  32  38 CALM      30.00F VSB 1
$$

TNZ008-025-027-028-033-062-065-066-180800-
NORTH MIDDLE TENNESSEE

CITY           SKY/WX    TMP DP  RH WIND       PRES   REMARKS
NASHVILLE      PTCLDY    60  59  96 CALM      30.02S
CLARKSVILLE    FOG       56  56 100 CALM      30.01F VSB 1/4
SMYRNA         CLEAR     57  57 100 CALM      30.03S FOG
COOKEVILLE     MOCLDY    55  55 100 CALM      30.02F VSB 1/2
CROSSVILLE     PTCLDY    57  54  89 CALM      30.05F
$$

TNZ061-075-076-078-094-096-097-180800-
SOUTH MIDDLE TENNESSEE

CITY           SKY/WX    TMP DP  RH WIND       PRES   REMARKS
FAYETTEVILLE   CLOUDY    57  57 100 CALM      30.03S
TULLAHOMA      CLOUDY    59  57  94 CALM      30.04S
WINCHESTER     CLEAR     55  55 100 CALM      30.03S
MCMINNVILLE    CLOUDY    55  55 100 CALM      30.03S VSB 0
COLUMBIA       CLOUDY    57  32  38 CALM      30.00F VSB 0
SHELBYVILLE    CLOUDY    57  57 100 CALM      30.03S VSB 1/4
$$

TNZ017-018-042-046-047-180800-
NORTHEAST TENNESSEE

CITY           SKY/WX    TMP DP  RH WIND       PRES   REMARKS
TRI CITIES     CLEAR     57  56  96 CALM      30.03S
ELIZABETHTON   SUNNY     54  54 100 CALM      30.03F
$$

TNZ012-013-036-069-073-074-180800-
CENTRAL EAST TENNESSEE

CITY           SKY/WX    TMP DP  RH WIND       PRES   REMARKS
KNOXVILLE      MOCLDY    61  59  93 CALM      30.01F
OAK RIDGE      PTCLDY    60  58  92 CALM      30.03F
GATLINBURG     CLOUDY    61  59  94 CALM      30.01F
$$

TNZ083-085-099-180800-
SOUTHEAST TENNESSEE

CITY           SKY/WX    TMP DP  RH WIND       PRES   REMARKS
CHATTANOOGA    CLOUDY    61  59  93 NE3       30.02S FOG
$$

SKY/WX REPORTED AS FAIR MEANS FEW OR NO CLOUDS BELOW
12 THOUSAND FEET.




USA.gov is the U.S. government's official web portal to all federal, state and local government web resources and services.